"Pseudo-MPEC" for P10LpaM

Created 2019 Jan 15 15:18:30 UT using Find_Orb

Click here for an explanation of pseudo-MPECs

 
 Astrometry: 
     P10LpaM  C2019 01 11QMPlHeA\W0$Astrometrydoa]@%/4iQ#^j6BX*qG*uZHwiY1S7u#F51
     P10LpaM  C2019 01 11!Mh:qY\Oc-Qm/L(2#\U6m/MBf%Tc7*redacted;umW=-OvCX`P/-F51
     P10LpaM  C2019 01 11[NDU:0[osLyH?1fL:boLHy\0mqyrdKSclick8Cwn^-)-[/`)OKoUF51
     P10LpaM  C2019 01 11NDKyDxcI+Vl)$Pja]%pD/EoXU5jZ[Yl/#hereb!pJ!\q^:GO!_.qF51
     P10LpaM KC2019 01 11ut`VSR?WJ(2t.]vD.Z^Uc_nr0Qi[8?a3for:!jG.c$2k7-SN)w\=L01
     P10LpaM KC2019 01 119kPt)J\q];ek$D$p5e#=HUyejD?^aX*l,3h*Zyyq$CON2:QOb,((L01
     P10LpaM IC2019 01 11\ojh),Wg@]gs.E=8sO,JYI1a+b4A2T?nI/6,omexplanationNi*L01
     P10LpaM  C2019 01 12.26828 07 08 48.87 +47 32 04.3    ~1C7I 21.6 GVNEOCPI52
     P10LpaM  C2019 01 12.26953 07 08 49.25 +47 31 57.5    ~1C7I 20.2 GVNEOCPI52
     P10LpaM  C2019 01 12.27078 07 08 49.65 +47 31 50.2    ~1C7I 20.9 GVNEOCPI52
     P10LpaM  C2019 01 12.27202 07 08 49.91 +47 31 43.9    ~1C7I 20.3 GVNEOCPI52
     P10LpaM  C2019 01 15.21355 07 20 44.83 +43 47 06.9    ~1F6I       VNEOCPI52
     P10LpaM  C2019 01 15.21604 07 20 45.26 +43 46 56.7    ~1F6I       VNEOCPI52
     P10LpaM  C2019 01 15.22103 07 20 45.99 +43 46 39.0    ~1F6I 21.1 GVNEOCPI52

Station data:
(F51) Pan-STARRS 1, Haleakala  (N20.707235 W156.255910)  US/Hawaii.
   Observers N. Primak, A. Schultz, S. Watters, J. Thiel, T. Goggia. Measurer
   PS1 Science Consortium. 1.8-m Ritchey-Chrétien + CCD.
(I52) Steward Observatory, Mt. Lemmon Station  (N32.442547 W110.788920)
   US/Arizona.  Observers B. M. Africano, E. J. Christensen, G. A. Farneth,
   D. C. Fuls, A. R. Gibbs, A. D. Grauer, H. Groeller, J. A. Johnson, R. A.
   Kowalski, S. M. Larson, G. J. Leonard, R. L. Seaman, F. C. Shelly. 1.0-m
   reflector + CCD.
(L01) Višnjan Observatory, Tičan  (N45.290900 E13.749300)  Croatia.
   Observers K. Korlević, E. Pettarin. Measurer E. Pettarin. 1.0-m f/2.9
   reflector + CCD.

Orbital elements:  P10LpaM
   Perihelion 2018 Nov 24.855100 +/- 0.0658 TT = 20:31:20 (JD 2458447.355100)
Epoch 2019 Jan 15.0 TT = JDT 2458498.5   Earth MOID: 0.0339   Ve: 0.0873
M  12.64803837 +/- 0.24             Ma: 0.0337                AutoNEOCP
n   0.24729813 +/- 0.00452          Peri.  339.32704 +/- 0.07
a   2.51375041 +/- 0.0306           Node    62.77668 +/- 0.08
e   0.6777395 +/- 0.0042            Incl.    3.47957 +/- 0.013
P   3.99                   H 24.5   G  0.15   U  9.1  
q 0.81008245 +/- 0.000687    Q 4.21741838 +/- 0.0612
From 14 observations 2019 Jan. 11-15; mean residual 0".35
Residuals in arcseconds: 
190111 F51  .14-  .28-    190111 L01  .12+  .02+    190112 I52  .11+  .19+    
190111 F51  .27-  .24-    190111 L01  .59-  .34+    190115 I52  .10-  .27+    
190111 F51  .19-  .35-    190112 I52  .07+  .30+    190115 I52  .24+  .66-    
190111 F51  .40-  .10-    190112 I52  .41+  .28+    190115 I52  .48-  .22+    
190111 L01  .34+  .20+    190112 I52  .96+  .24-    

Ephemerides (geocentric):
Date (UTC) HH   RA              Dec         delta   r     elong  mag " sig PA
---- -- -- --  -------------   -----------  ------ ------ -----  --- ---- ---
2019 01 15 15  07 21 56.722   +43 21 17.92  .14757 1.1211 157.2 21.6 .172  48
2019 01 15 16  07 22 03.985   +43 18 45.65  .14796 1.1215 157.2 21.6 .175  46
2019 01 15 17  07 22 11.203   +43 16 14.07  .14835 1.1219 157.2 21.6 .178  44
2019 01 15 18  07 22 18.376   +43 13 43.16  .14874 1.1223 157.3 21.6 .182  42
2019 01 15 19  07 22 25.504   +43 11 12.93  .14913 1.1227 157.3 21.6 .185  40
2019 01 15 20  07 22 32.588   +43 08 43.36  .14952 1.1231 157.3 21.6 .189  38
2019 01 15 21  07 22 39.628   +43 06 14.47  .14991 1.1235 157.3 21.6 .194  36
2019 01 15 22  07 22 46.624   +43 03 46.23  .15031 1.1239 157.4 21.6 .198  34
2019 01 15 23  07 22 53.578   +43 01 18.64  .15070 1.1243 157.4 21.6 .203  33
2019 01 16 00  07 23 00.488   +42 58 51.71  .15109 1.1246 157.4 21.6 .208  31
2019 01 16 01  07 23 07.357   +42 56 25.42  .15148 1.1250 157.5 21.7 .213  29
2019 01 16 02  07 23 14.183   +42 53 59.78  .15187 1.1254 157.5 21.7 .218  28
2019 01 16 03  07 23 20.969   +42 51 34.77  .15226 1.1258 157.5 21.7 .224  26
2019 01 16 04  07 23 27.713   +42 49 10.40  .15266 1.1262 157.5 21.7 .229  25
2019 01 16 05  07 23 34.416   +42 46 46.66  .15305 1.1266 157.6 21.7 .235  23
2019 01 16 06  07 23 41.080   +42 44 23.54  .15344 1.1270 157.6 21.7 .242  22
2019 01 16 07  07 23 47.703   +42 42 01.04  .15384 1.1274 157.6 21.7 .248  21
2019 01 16 08  07 23 54.287   +42 39 39.16  .15423 1.1278 157.7 21.7 .255  20
2019 01 16 09  07 24 00.832   +42 37 17.88  .15462 1.1282 157.7 21.7 .261  18
2019 01 16 10  07 24 07.338   +42 34 57.22  .15502 1.1286 157.7 21.7 .268  17
2019 01 16 11  07 24 13.805   +42 32 37.16  .15541 1.1290 157.7 21.7 .275  16
2019 01 16 12  07 24 20.235   +42 30 17.71  .15580 1.1294 157.8 21.7 .283  15
2019 01 16 13  07 24 26.626   +42 27 58.84  .15620 1.1298 157.8 21.7 .290  14
2019 01 16 14  07 24 32.981   +42 25 40.57  .15659 1.1302 157.8 21.7 .298  13
2019 01 16 15  07 24 39.298   +42 23 22.89  .15699 1.1306 157.8 21.7 .305  12
2019 01 16 16  07 24 45.579   +42 21 05.79  .15738 1.1310 157.9 21.7 .313  11
2019 01 16 17  07 24 51.823   +42 18 49.27  .15778 1.1314 157.9 21.7 .321  10
2019 01 16 18  07 24 58.031   +42 16 33.33  .15817 1.1318 157.9 21.7 .330  10
2019 01 16 19  07 25 04.204   +42 14 17.96  .15857 1.1322 157.9 21.7 .338   9
2019 01 16 20  07 25 10.341   +42 12 03.16  .15896 1.1326 158.0 21.8 .346   8
2019 01 16 21  07 25 16.443   +42 09 48.92  .15936 1.1330 158.0 21.8 .355   7
2019 01 16 22  07 25 22.511   +42 07 35.25  .15976 1.1334 158.0 21.8 .364   7
2019 01 16 23  07 25 28.544   +42 05 22.13  .16015 1.1338 158.0 21.8 .372   6
2019 01 17 00  07 25 34.542   +42 03 09.57  .16055 1.1342 158.0 21.8 .381   5
2019 01 17 01  07 25 40.507   +42 00 57.56  .16095 1.1346 158.1 21.8 .390   5
2019 01 17 02  07 25 46.439   +41 58 46.09  .16134 1.1350 158.1 21.8 .400   4
2019 01 17 03  07 25 52.337   +41 56 35.17  .16174 1.1354 158.1 21.8 .409   3
2019 01 17 04  07 25 58.203   +41 54 24.78  .16214 1.1358 158.1 21.8 .418   3
2019 01 17 05  07 26 04.036   +41 52 14.93  .16253 1.1362 158.2 21.8 .428   2
2019 01 17 06  07 26 09.836   +41 50 05.62  .16293 1.1366 158.2 21.8 .438   2
2019 01 17 07  07 26 15.605   +41 47 56.83  .16333 1.1370 158.2 21.8 .447   1
2019 01 17 08  07 26 21.341   +41 45 48.57  .16373 1.1374 158.2 21.8 .457   1
2019 01 17 09  07 26 27.047   +41 43 40.83  .16413 1.1378 158.2 21.8 .467   0
2019 01 17 10  07 26 32.721   +41 41 33.61  .16452 1.1382 158.3 21.8 .477   0
2019 01 17 11  07 26 38.364   +41 39 26.91  .16492 1.1386 158.3 21.8 .487 179
2019 01 17 12  07 26 43.976   +41 37 20.72  .16532 1.1390 158.3 21.8 .498 179
2019 01 17 13  07 26 49.558   +41 35 15.03  .16572 1.1394 158.3 21.8 .508 179
2019 01 17 14  07 26 55.110   +41 33 09.86  .16612 1.1398 158.3 21.8 .519 178